Regional Weather Roundup
Issued by NWS

Home | Current Version | Previous Version | Graphics & Text | Print | Product List | Glossary On
Versions: 1 2 3 4 5 6 7 8 9 10 11 12 13 14 15 16 17 18 19 20 21 22 23 24 25 26 27 28 29 30 31 32 33 34 35 36 37 38 39 40 41 42 43 44 45 46 47 48 49 50
000
ASUS44 KMEG 281300
RWRTN
TENNESSEE HOURLY STATE WEATHER ROUNDUP
NATIONAL WEATHER SERVICE MEMPHIS TN
700 AM CST SAT FEB 28 2015

TNZ002-004-019-021-049-052-054-088>092-281400-
WEST TENNESSEE

CITY           SKY/WX    TMP DP  RH WIND       PRES   REMARKS
MEMPHIS INTL   CLOUDY    30  13  49 NE8       30.54S WCI  22
NWS MEMPHIS      N/A     29 N/A N/A MISG        N/A
JACKSON        CLOUDY    27  13  55 NE8       30.57R WCI  19
DYERSBURG      CLOUDY    25   7  46 NE13      30.61S WCI  13
UNION CITY     CLOUDY    19  16  86 NE9       30.60F WCI   9
PARIS          CLOUDY    21  10  63 NE12      30.59S WCI   9
LEXINGTON      CLOUDY    27   9  46 N5        30.55S WCI  21
SAVANNAH       CLOUDY    28  10  47 N3        30.55R
$$

TNZ008-025-027-028-033-062-065-066-281400-
NORTH MIDDLE TENNESSEE

CITY           SKY/WX    TMP DP  RH WIND       PRES   REMARKS
NASHVILLE      CLOUDY    26  11  52 NE7       30.60R WCI  18
CLARKSVILLE    CLOUDY    24  12  60 NE8       30.61R WCI  15
COOKEVILLE     CLOUDY    23  14  68 CALM      30.54R
CROSSVILLE     CLOUDY    24  13  62 E5        30.51R WCI  18
$$

TNZ061-075-076-078-094-096-097-281400-
SOUTH MIDDLE TENNESSEE

CITY           SKY/WX    TMP DP  RH WIND       PRES   REMARKS
FAYETTEVILLE   PTCLDY    25  14  63 NE6         N/A  WCI  18
TULLAHOMA      CLOUDY    25  12  58 NE6       30.52S WCI  18
WINCHESTER     CLOUDY    27  18  69 NE5       30.53S WCI  21
COLUMBIA         N/A     27  12  54 NE6       30.55R WCI  20
SHELBYVILLE    CLOUDY    27  16  63 N3        30.56R
$$

TNZ017-018-042-046-047-281400-
NORTHEAST TENNESSEE

CITY           SKY/WX    TMP DP  RH WIND       PRES   REMARKS
TRI CITIES     PTSUNNY   19  11  70 NE5       30.59R WCI  12
ELIZABETHTON   SUNNY     18  12  79 CALM      30.58R
$$

TNZ012-013-036-069-073-074-281400-
CENTRAL EAST TENNESSEE

CITY           SKY/WX    TMP DP  RH WIND       PRES   REMARKS
KNOXVILLE      MOCLDY    25  15  66 NE9       30.58R WCI  15
OAK RIDGE      CLOUDY    27  13  55 VRB6      30.60R WCI  20
GATLINBURG     SUNNY     19  18  93 CALM      30.58R
$$

TNZ083-085-099-281400-
SOUTHEAST TENNESSEE

CITY           SKY/WX    TMP DP  RH WIND       PRES   REMARKS
CHATTANOOGA    MOCLDY    29  14  53 NE7       30.58R WCI  22
$$

SKY/WX REPORTED AS FAIR MEANS FEW OR NO CLOUDS BELOW
12 THOUSAND FEET.



USA.gov is the U.S. government's official web portal to all federal, state and local government web resources and services.